Weather History for KRNT - October, 2012

Change the Weather History Date:

Friday, October 19, 2012

  Actual Average Record
Temperature  
Mean Temperature 54 °F -  
Max Temperature 61 °F 57 °F 73 °F (2014)
Min Temperature 48 °F 44 °F 37 °F (2008)
Degree Days  
Heating Degree Days 10    
Growing Degree Days 4 (Base 50)    
Moisture  
Dew Point 51 °F    
Average Humidity 86    
Maximum Humidity 100    
Minimum Humidity 72    
Precipitation  
Precipitation 0.26 in - - ()
Sea Level Pressure  
Sea Level Pressure 29.80 in    
Wind  
Wind Speed 6 mph (SSE)    
Max Wind Speed 13 mph    
Max Gust Speed 21 mph    
Visibility 8 miles    
Events Rain    
Averages and records for this station are not official NWS values.
T = Trace of Precipitation, MM = Missing Value Source: NWS Daily Summary

Daily Weather History Graph

Daily Weather History Graph

Search for Another Location

Airport or City:

Trip Planner

Search our weather history database for the weather conditions in past years. The results will help you decide how hot, cold, wet, or windy it might be!

Date:

Astronomy

Oct. 19, 2012 Rise Set
Actual Time 7:34 AM PDT 6:12 PM PDT
Civil Twilight 7:02 AM PDT 6:43 PM PDT
Nautical Twilight 6:27 AM PDT 7:19 PM PDT
Astronomical Twilight 5:51 AM PDT 7:54 PM PDT
Moon 12:36 PM PDT (10/19) 9:42 PM PDT (10/19)
Length of Visible Light 11h 40m
Length of Day
10h 38m
Waxing Crescent, 24% of the Moon is Illuminated
Oct 19
Waxing Crescent
Oct 21
First Quarter
Oct 29
Full
Nov 6
Last Quarter
Nov 13
New

Hourly Weather History & Observations

Time (PDT) Temp. Dew Point Humidity Pressure Visibility Wind Dir Wind Speed Gust Speed Precip Events Conditions
12:02 AM 53.6 °F 51.8 °F 94% 29.83 in 2.5 mi ESE 4.6 mph - 0.02 in Rain Light Rain
12:10 AM 53.6 °F 53.6 °F 100% 29.83 in 3.0 mi ESE 4.6 mph - 0.03 in Rain Light Rain
12:30 AM 55.4 °F 53.6 °F 94% 29.82 in 7.0 mi ESE 5.8 mph - 0.06 in   Overcast
12:39 AM 55.4 °F 53.6 °F 94% 29.83 in 5.0 mi SE 4.6 mph - 0.06 in   Overcast
12:46 AM 55.4 °F 53.6 °F 94% 29.83 in 6.0 mi SE 5.8 mph - 0.06 in   Overcast
12:53 AM 55.0 °F 53.1 °F 93% 29.85 in 7.0 mi SE 4.6 mph - 0.06 in   Overcast
1:19 AM 55.4 °F 53.6 °F 94% 29.83 in 6.0 mi SE 5.8 mph - 0.00 in   Overcast
1:53 AM 57.0 °F 55.0 °F 93% 29.84 in 6.0 mi SSE 5.8 mph - 0.01 in Rain Light Rain
2:53 AM 57.9 °F 55.9 °F 93% 29.83 in 6.0 mi SE 4.6 mph - 0.02 in Rain Light Rain
3:53 AM 59.0 °F 55.9 °F 90% 29.82 in 10.0 mi South 10.4 mph 17.3 mph 0.00 in   Overcast
4:14 AM 59.0 °F 55.4 °F 88% 29.80 in 10.0 mi SSE 9.2 mph - N/A   Overcast
4:53 AM 60.1 °F 55.0 °F 83% 29.81 in 10.0 mi SSE 12.7 mph 18.4 mph N/A   Overcast
5:16 AM 60.8 °F 55.4 °F 82% 29.78 in 10.0 mi SE 12.7 mph 18.4 mph N/A   Mostly Cloudy
5:41 AM 60.8 °F 53.6 °F 77% 29.78 in 10.0 mi SSE 11.5 mph 20.7 mph N/A   Overcast
5:53 AM 61.0 °F 54.0 °F 78% 29.80 in 10.0 mi SSE 12.7 mph 20.7 mph N/A   Overcast
6:53 AM 60.1 °F 54.0 °F 80% 29.81 in 9.0 mi South 11.5 mph 19.6 mph 0.00 in Rain Light Rain
7:53 AM 57.9 °F 55.9 °F 93% 29.81 in 3.0 mi SSE 6.9 mph - 0.02 in Rain Light Rain
8:21 AM 57.2 °F 55.4 °F 94% 29.79 in 2.5 mi SSE 5.8 mph - 0.02 in   Overcast
8:27 AM 57.2 °F 55.4 °F 94% 29.79 in 3.0 mi SSE 6.9 mph - 0.02 in   Overcast
8:38 AM 57.2 °F 55.4 °F 94% 29.80 in 2.5 mi South 4.6 mph - 0.02 in Rain Light Rain
8:42 AM 57.2 °F 55.4 °F 94% 29.80 in 3.0 mi Variable 3.5 mph - 0.02 in Rain Light Rain
8:53 AM 57.0 °F 55.9 °F 96% 29.81 in 1.8 mi SSE 5.8 mph - 0.03 in Rain Light Rain
8:55 AM 57.2 °F 55.4 °F 94% 29.79 in 3.0 mi SSE 4.6 mph - 0.01 in Rain Light Rain
9:53 AM 57.9 °F 55.9 °F 93% 29.82 in 3.0 mi SSE 6.9 mph - 0.03 in   Overcast
10:53 AM 57.0 °F 54.0 °F 89% 29.83 in 10.0 mi South 9.2 mph 18.4 mph N/A   Overcast
11:53 AM 57.0 °F 51.1 °F 81% 29.83 in 10.0 mi South 12.7 mph 20.7 mph N/A   Overcast
12:53 PM 57.0 °F 50.0 °F 77% 29.83 in 10.0 mi South 11.5 mph 20.7 mph N/A   Overcast
1:53 PM 57.0 °F 48.9 °F 74% 29.82 in 10.0 mi SSE 8.1 mph - N/A   Overcast
2:32 PM 57.2 °F 48.2 °F 72% 29.79 in 10.0 mi SSE 9.2 mph - N/A   Overcast
2:53 PM 57.0 °F 48.9 °F 74% 29.81 in 10.0 mi South 8.1 mph - N/A   Overcast
3:27 PM 57.2 °F 48.2 °F 72% 29.78 in 10.0 mi South 10.4 mph 19.6 mph N/A   Overcast
3:53 PM 57.0 °F 48.0 °F 72% 29.80 in 10.0 mi South 9.2 mph 17.3 mph N/A   Overcast
4:53 PM 54.0 °F 48.0 °F 80% 29.79 in 10.0 mi West 5.8 mph - N/A   Overcast
5:53 PM 53.1 °F 48.0 °F 83% 29.78 in 10.0 mi NNW 5.8 mph - N/A   Overcast
6:53 PM 52.0 °F 46.9 °F 83% 29.78 in 10.0 mi NNW 5.8 mph - N/A   Overcast
7:53 PM 52.0 °F 46.9 °F 83% 29.78 in 10.0 mi Variable 4.6 mph - N/A   Overcast
8:10 PM 53.6 °F 44.6 °F 72% 29.76 in 10.0 mi South 6.9 mph - N/A   Overcast
8:29 PM 53.6 °F 44.6 °F 72% 29.76 in 10.0 mi South 5.8 mph - 0.00 in Rain Light Rain
8:53 PM 51.1 °F 46.9 °F 86% 29.79 in 5.0 mi SW 4.6 mph - 0.03 in Rain Rain
9:37 PM 51.8 °F 48.2 °F 88% 29.77 in 9.0 mi Calm Calm - 0.05 in Rain Light Rain
9:53 PM 50.0 °F 48.0 °F 93% 29.79 in 10.0 mi Calm Calm - 0.06 in Rain Light Rain
10:48 PM 48.2 °F 42.8 °F 82% 29.78 in 10.0 mi Calm Calm - 0.00 in   Overcast
10:53 PM 48.0 °F 43.0 °F 83% 29.80 in 10.0 mi Calm Calm - 0.00 in Rain Light Rain
11:53 PM 48.0 °F 43.0 °F 83% 29.81 in 10.0 mi NW 3.5 mph - 0.00 in   Overcast